Terminal Aerodrome Forecast
Issued by NWS

Home | Current Version | Previous Version | Text Only | Print | Product List | Glossary On
Versions: 1 2 3 4 5 6 7 8 9 10 11 12 13 14 15 16 17 18 19 20 21 22 23 24 25 26 27
000
FTUS45 KLKN 311132
TAFWMC
TAF
KWMC 311132Z 3112/0112 04012KT P6SM FEW120 BKN250
     FM312000 01008KT P6SM SCT120 BKN250
     FM010500 05008KT P6SM BKN250=

USA.gov is the U.S. government's official web portal to all federal, state and local government web resources and services.